Weather Roundup
Issued by NWS Chicago, IL

Home | Current Version | Previous Version | Graphics & Text | Print | Product List | Glossary On
Versions: 1 2 3 4 5 6 7 8 9 10 11 12 13 14 15 16 17 18 19 20 21 22 23 24 25 26 27 28 29 30 31 32 33 34 35 36 37 38 39 40 41 42 43 44 45 46 47 48 49 50
000
NZUS59 KLOT 040706
HRRLOT

CHICAGO AREA WEATHER ROUNDUP
NATIONAL WEATHER SERVICE CHICAGO/ROMEOVILLE IL
100 AM CST WED MAR 04 2015

NOTE: "FAIR" INDICATES FEW OR NO CLOUDS BELOW 12,000 FEET WITH NO
SIGNIFICANT WEATHER AND/OR OBSTRUCTIONS TO VISIBILITY.

* THESE STATIONS ARE NOT UNDER NWS QUALITY CONTROL. THEY ALSO MAY NOT
  REPORT WEATHER SUCH AS PRECIPITATION OR FOG.

ILZ005-006-012>014-019>023-040800-
NORTHEAST ILLINOIS

CITY           SKY/WX    TMP DP  RH WIND       PRES   REMARKS
OHARE          CLOUDY    30  23  75 W12       29.87R WCI  20
MIDWAY         CLOUDY    33  24  69 W10       29.88R WCI  25
AURORA         CLOUDY    30  24  78 W15       29.89R WCI  19
LANSING*       CLOUDY    32  24  72 NW7       29.88S WCI  26
JOLIET*        CLOUDY    31  25  79 W6        29.90R WCI  25
WAUKEGAN       CLOUDY    30  24  78 W6        29.85R WCI  24
DUPAGE AIRPORT CLOUDY    30  23  75 W13       29.87R WCI  20
WHEELING       CLOUDY    31  23  72 W12       29.88R WCI  22
KANKAKEE*      CLOUDY    32  26  81 W6        29.90S WCI  26
MORRIS*        CLOUDY    31  28  88 NW17      29.90R WCI  19
LEWIS AIRPORT* CLOUDY    31  26  81 NW7       29.89R WCI  24
NORTHERLY IS     N/A     32  24  73 W5          N/A  WCI  27
$$

WIZ051-052-058>065-066-070>072-040800-
SOUTHEAST WISCONSIN

CITY           SKY/WX    TMP DP  RH WIND       PRES   REMARKS
MILWAUKEE      MOCLDY    29  18  63 W6        29.84R WCI  23
KENOSHA*       CLOUDY    29  23  78 W7        29.85R WCI  22
RACINE*        CLOUDY    30  21  69 W5        29.86R WCI  25
BURLINGTON     PTCLDY    26  18  74 W5        29.86R WCI  20
WAUKESHA       CLOUDY    27  18  69 W13       29.84R WCI  16
WEST BEND      MOCLDY    27  14  59 W13G18    29.83R WCI  16
$$

INZ001>003-010>013-019-020-040800-
NORTHWEST INDIANA

CITY           SKY/WX    TMP DP  RH WIND       PRES   REMARKS
GARY*          CLOUDY    33  22  63 W10G16    29.89R WCI  25
MICHIGAN CITY* NOT AVBL
RENSSELAER*    NOT AVBL
VALPARAISO     CLOUDY    30  24  78 W6        29.88R WCI  24
$$

LMZ740>746-040800-
SOUTHERN LAKE MICHIGAN

STATION/POSITION TIME  SKY/WX   TEMP WIND        PRES    VSBY
                                AIR  DIR/SP/G
                 (UTC)          (F)  (DEG/KT/KT) (MB)    (MI)
HARRISON CRIB    0700            32  280/ 13/ 15   N/A
BURNHAM HARBOR   0700            32  240/  4/ 11   N/A
CALUMET HARBOR   0600            32  270/  5/ 12 1010.6R
BURNS HARBOR     NOT AVBL
MICHIGAN CITY    0700            31  250/  9/ 10   N/A
$$

ABBREVIATIONS USED IN REMARKS
   TC - TEMPERATURE IN CELSIUS
  WCI - WIND CHILL INDEX
   HX - HEAT INDEX
  VSB - VISIBILITY
$$



USA.gov is the U.S. government's official web portal to all federal, state and local government web resources and services.